Leadville, CO

9:19 PM MDT on September 25, 2017 (GMT -0600)
Lake County

Weather History for KLXV - February, 2014

Change the Weather History Date:

Saturday, February 22, 2014

  Actual Average Record
Temperature  
Mean Temperature 21 °F -  
Max Temperature 26 °F 33 °F 46 °F (1991)
Min Temperature 15 °F 6 °F -13 °F (1987)
Degree Days  
Heating Degree Days 44 46  
Month to date heating degree days 1045 1041  
Since 1 July heating degree days 7284 7438  
Cooling Degree Days 0 0  
Month to date cooling degree days 0 0  
Year to date cooling degree days 0 0  
Moisture  
Dew Point 5 °F    
Average Humidity 50    
Maximum Humidity 62    
Minimum Humidity 37    
Precipitation  
Precipitation T in 0.03 in 0.83 in (1977)
Month to date precipitation 1.09 0.53  
Year to date precipitation 4.05 1.15  
Sea Level Pressure  
Sea Level Pressure 29.81 in    
Wind  
Wind Speed 14 mph (WNW)    
Max Wind Speed 28 mph    
Max Gust Speed 39 mph    
Visibility 9 miles    
Events Snow    
T = Trace of Precipitation, MM = Missing Value Source: NWS Daily Summary

Daily Weather History Graph

Daily Weather History Graph

Search for Another Location

Airport or City:

Trip Planner

Search our weather history database for the weather conditions in past years. The results will help you decide how hot, cold, wet, or windy it might be!

Date:

Astronomy

Feb. 22, 2014 Rise Set
Actual Time 6:47 AM MST 5:50 PM MST
Civil Twilight 6:20 AM MST 6:17 PM MST
Nautical Twilight 5:49 AM MST 6:48 PM MST
Astronomical Twilight 5:18 AM MST 7:19 PM MST
Moon 12:45 AM MST (2/22) 11:04 AM MST (2/22)
Length of Visible Light 11h 56m
Length of Day
11h 02m
Waning Gibbous, 49% of the Moon is Illuminated
Feb 22
Waning Gibbous
Mar 1
New
Mar 8
First Quarter
Mar 16
Full
Mar 23
Last Quarter

Hourly Weather History & Observations

Time (MST) Temp. Windchill Dew Point Humidity Pressure Visibility Wind Dir Wind Speed Gust Speed Precip Events Conditions
12:53 AM 19.9 °F 6.2 °F 3.9 °F 50% 29.80 in 10.0 mi West 15.0 mph - N/A   Overcast
1:53 AM 19.0 °F 7.5 °F 3.9 °F 52% 29.80 in 10.0 mi WNW 10.4 mph 19.6 mph N/A   Overcast
2:53 AM 18.0 °F 4.8 °F 1.9 °F 50% 29.80 in 10.0 mi WNW 12.7 mph - N/A   Scattered Clouds
3:53 AM 18.0 °F 3.1 °F 1.0 °F 48% 29.80 in 10.0 mi West 16.1 mph 23.0 mph N/A   Mostly Cloudy
4:53 AM 18.0 °F 1.7 °F 1.0 °F 48% 29.81 in 10.0 mi West 19.6 mph 25.3 mph N/A   Scattered Clouds
5:53 AM 15.1 °F 6.4 °F -0.0 °F 51% 29.84 in 10.0 mi NW 5.8 mph - N/A   Partly Cloudy
6:53 AM 17.1 °F 4.3 °F -0.0 °F 47% 29.82 in 10.0 mi NW 11.5 mph 18.4 mph N/A   Overcast
7:53 AM 19.0 °F 5.0 °F 1.9 °F 47% 29.82 in 10.0 mi WNW 15.0 mph - N/A   Overcast
8:53 AM 21.0 °F 8.6 °F 1.9 °F 44% 29.81 in 10.0 mi WNW 12.7 mph - N/A   Overcast
9:53 AM 21.9 °F 7.3 °F 3.0 °F 44% 29.79 in 10.0 mi West 18.4 mph 24.2 mph N/A   Overcast
10:53 AM 23.0 °F 9.6 °F 6.1 °F 48% 29.79 in 10.0 mi West 16.1 mph 26.5 mph N/A   Overcast
11:53 AM 24.1 °F 14.4 °F 6.1 °F 46% 29.79 in 10.0 mi West 9.2 mph 21.9 mph N/A   Overcast
12:53 PM 24.1 °F 9.4 °F 5.0 °F 44% 29.76 in 7.0 mi West 20.7 mph 32.2 mph 0.00 in   Overcast
1:53 PM 26.1 °F 11.3 °F 3.0 °F 37% 29.73 in 10.0 mi WSW 23.0 mph 34.5 mph 0.00 in   Overcast
2:53 PM 24.1 °F 8.0 °F 5.0 °F 44% 29.76 in 6.0 mi West 25.3 mph 38.0 mph N/A   Haze
3:53 PM 24.1 °F 12.5 °F 8.1 °F 51% 29.77 in 10.0 mi West 12.7 mph 28.8 mph N/A   Overcast
4:53 PM 24.1 °F 14.4 °F 6.1 °F 46% 29.78 in 10.0 mi West 9.2 mph - N/A   Overcast
5:53 PM 24.1 °F 11.0 °F 3.9 °F 42% 29.81 in 10.0 mi West 16.1 mph 25.3 mph N/A   Overcast
6:53 PM 23.0 °F 10.6 °F 6.1 °F 48% 29.83 in 10.0 mi WNW 13.8 mph 23.0 mph N/A   Overcast
7:53 PM 23.0 °F 10.6 °F 5.0 °F 46% 29.83 in 10.0 mi WNW 13.8 mph 28.8 mph N/A   Overcast
8:53 PM 21.0 °F 7.6 °F 10.0 °F 63% 29.86 in 10.0 mi WNW 15.0 mph - N/A   Overcast
9:53 PM 19.0 °F 9.0 °F 14.0 °F 81% 29.88 in 5.0 mi WNW 8.1 mph - 0.00 in Snow Light Snow
10:53 PM 19.0 °F 10.0 °F 14.0 °F 81% 29.88 in 7.0 mi NW 6.9 mph - 0.00 in   Overcast
11:53 PM 19.0 °F 7.5 °F 12.9 °F 77% 29.87 in 10.0 mi WNW 10.4 mph - 0.00 in   Overcast